sat.trackr.live / text

‹ back to catalog

STARLINK-35067

NORAD 65527 · 2025-200H

PAYLOAD ACTIVE UNKNOWN

§ Identity

Operator
Country
US
Launch date
2025-09-06
Launch site
AFWTR
Launch vehicle
Mass (kg)
RCS (m²)

Purposes: comms

External: N2YO · Heavens-Above · Gunter

§ Orbital elements

Epoch: 2026-05-25T03:41:38.391648Z

Period
95.64 min
Inclination
97.4500°
Eccentricity
0.0001624
Mean motion
15.05649186 rev/d
Perigee alt
548.4 km
Apogee alt
550.6 km
Semi-major
6,927.7 km
B*
4.5492e-5
RAAN
214.7569°
Arg perigee
147.9420°
Mean anomaly
212.1906°
Rev number
4,063

§ Raw data

STARLINK-350671 65527U 25200H   26145.15391657  .00000598  00000+0  45492-4 0  99982 65527  97.4500 214.7569 0001624 147.9420 212.1906 15.05649186 40635

JSON: /api/v1/satellites/65527 · /tle

For live sub-satellite position, see the globe view (requires WebGL).

§ Visibility from observer

Set your observer location to see the next 7 days of passes ≥ 10°. The values pass through the URL so the page stays shareable.

No JS? Fill the form by hand. The geolocation button needs JavaScript.